Location: Black Swamp Observatory
(41.3920°N, 84.1250°W)
Time: 02:17:21
(UTC-04:00)

Transit 2A Rocket - Visible Passes

Search period start: 28 September 2022 00:00
Search period end: 08 October 2022 00:00
Orbit: 593 x 908 km, 66.7° (Epoch: 26 September)

Date Brightness Start Highest point End Pass type
(mag) Time Alt. Az. Time Alt. Az. Time Alt. Az.
30 Sep 7.3 06:52:12 10° SSE 06:55:31 22° ESE 06:58:48 10° ENE visible
01 Oct 7.8 06:11:43 10° ESE 06:12:55 11° ESE 06:14:06 10° E visible
03 Oct 6.4 06:25:19 10° S 06:29:11 32° ESE 06:33:01 10° NE visible
04 Oct 7.3 05:43:45 10° SSE 05:46:31 17° ESE 05:49:17 10° ENE visible
05 Oct 4.4 06:41:22 10° SSW 06:45:41 86° WNW 06:50:01 10° NNE visible
06 Oct 5.4 05:58:46 10° S 06:02:51 48° ESE 06:07:01 10° NE visible
07 Oct 6.5 05:18:10 18° SSE 05:20:08 25° ESE 05:23:40 10° NE visible
07 Oct 5.3 06:58:38 10° WSW 07:02:28 31° NW 07:06:23 10° NNE visible
